Location: Northam
(31.6525°S, 116.6655°E)
Time: 01:07:53
(UTC+08:00)

Hubble Space Telescope - Pass Details

Date: 24 May 2021
Orbit: 535 x 539 km, 28.5° (Epoch: 19 June)

Event Time Altitude Azimuth Distance (km) Brightness Sun altitude
Rises 19:42:19 0° 273° (W) 2,690 5.5 -29.9°
Reaches altitude 10° 19:44:57 10° 288° (WNW) 1,797 4.3 -30.4°
Enters shadow 19:47:03 20° 315° (NW) 1,286 3.1 -30.9°
